Leesburg, FL

6:49 AM EDT on October 16, 2019 (GMT -0400)
Leesburg Regional

Weather History for KLEE - September, 2019

Change the Weather History Date:

Friday, September 20, 2019

  Actual Average Record
Temperature  
Mean Temperature 76 °F -  
Max Temperature 86 °F 88 °F 96 °F (1991)
Min Temperature 71 °F 69 °F 52 °F (1981)
Cooling Degree Days 12    
Growing Degree Days 26 (Base 50)    
Moisture  
Dew Point 68 °F    
Average Humidity 73    
Maximum Humidity 91    
Minimum Humidity 56    
Precipitation  
Precipitation 0.00 in - - ()
Sea Level Pressure  
Sea Level Pressure 30.12 in    
Wind  
Wind Speed 7 mph (ENE)    
Max Wind Speed 16 mph    
Max Gust Speed 30 mph    
Visibility 10 miles    
Events      
Averages and records for this station are not official NWS values.
T = Trace of Precipitation, MM = Missing Value Source: NWS Daily Summary

Daily Weather History Graph

Daily Weather History Graph

Search for Another Location

Airport or City:

Astronomy

Sep. 20, 2019 Rise Set
Actual Time 7:14 AM EDT 7:26 PM EDT
Civil Twilight 6:50 AM EDT 7:50 PM EDT
Nautical Twilight 6:23 AM EDT 8:17 PM EDT
Astronomical Twilight 5:55 AM EDT 8:45 PM EDT
Moon 11:43 PM EDT (9/20) 12:51 PM EDT (9/20)
Length of Visible Light 12h 59m
Length of Day
12h 11m
Waning Gibbous, 65% of the Moon is Illuminated
Sep 20
Waning Gibbous
Sep 21
Last Quarter
Sep 28
New
Oct 5
First Quarter
Oct 13
Full

Hourly Weather History & Observations

Time (EDT) Temp. Heat Index Dew Point Humidity Pressure Visibility Wind Dir Wind Speed Gust Speed Precip Events Conditions
12:53 AM 73.0 °F - 69.1 °F 87% 30.08 in 10.0 mi North 5.8 mph - N/A   Clear
1:53 AM 72.0 °F - 68.0 °F 87% 30.08 in 10.0 mi NNE 5.8 mph - N/A   Clear
2:53 AM 72.0 °F - 68.0 °F 87% 30.07 in 10.0 mi North 4.6 mph - N/A   Partly Cloudy
3:53 AM 72.0 °F - 68.0 °F 87% 30.06 in 10.0 mi North 6.9 mph - N/A   Clear
4:53 AM 71.1 °F - 68.0 °F 90% 30.06 in 10.0 mi North 5.8 mph - N/A   Partly Cloudy
5:53 AM 72.0 °F - 69.1 °F 91% 30.07 in 10.0 mi NNE 3.5 mph - N/A   Partly Cloudy
6:53 AM 72.0 °F - 68.0 °F 87% 30.09 in 10.0 mi NNE 6.9 mph - N/A   Clear
7:53 AM 73.0 °F - 69.1 °F 87% 30.11 in 10.0 mi NNE 6.9 mph - N/A   Clear
8:53 AM 75.9 °F - 70.0 °F 82% 30.12 in 10.0 mi ENE 5.8 mph - N/A   Clear
9:53 AM 80.1 °F 82.7 °F 68.0 °F 67% 30.13 in 10.0 mi East 11.5 mph - N/A   Mostly Cloudy
10:53 AM 82.0 °F 84.9 °F 68.0 °F 62% 30.15 in 10.0 mi East 6.9 mph - N/A   Overcast
11:53 AM 82.9 °F 86.5 °F 69.1 °F 63% 30.15 in 10.0 mi ESE 8.1 mph - N/A   Overcast
12:53 PM 82.0 °F 85.5 °F 69.1 °F 65% 30.15 in 10.0 mi East 11.5 mph 20.7 mph N/A   Overcast
1:53 PM 82.0 °F 84.5 °F 66.9 °F 60% 30.15 in 10.0 mi East 16.1 mph 21.9 mph N/A   Mostly Cloudy
2:53 PM 79.0 °F - 66.0 °F 64% 30.15 in 9.0 mi East 16.1 mph 29.9 mph N/A   Overcast
3:53 PM 81.0 °F 83.3 °F 66.9 °F 62% 30.14 in 10.0 mi East 12.7 mph - 0.00 in   Mostly Cloudy
4:53 PM 82.9 °F 86.5 °F 69.1 °F 63% 30.12 in 10.0 mi East 9.2 mph - N/A   Mostly Cloudy
5:53 PM 82.9 °F 85.4 °F 66.9 °F 58% 30.12 in 10.0 mi East 12.7 mph 19.6 mph N/A   Partly Cloudy
6:53 PM 82.0 °F 83.8 °F 64.9 °F 56% 30.12 in 10.0 mi East 11.5 mph - N/A   Partly Cloudy
7:53 PM 79.0 °F - 64.9 °F 62% 30.14 in 10.0 mi East 8.1 mph - N/A   Clear
8:53 PM 77.0 °F - 66.0 °F 69% 30.16 in 10.0 mi ENE 5.8 mph - N/A   Clear
9:53 PM 77.0 °F - 66.0 °F 69% 30.17 in 10.0 mi ENE 6.9 mph - N/A   Clear
10:53 PM 75.0 °F - 66.0 °F 73% 30.17 in 10.0 mi NE 5.8 mph - N/A   Clear
11:53 PM 73.0 °F - 66.0 °F 79% 30.17 in 10.0 mi NE 5.8 mph - N/A   Partly Cloudy